User: anonymous   Login
Location: Mactaquac Provincial Park
(45.9573°N, 66.8897°W)
Time: 20:48:17
(UTC-03:00)
Language:

CENTAUR R/B - Orbit

View from above orbital plane
View from above orbital plane
View from above satellite
View from above satellite

Ground track
Ground track

The orbit data is extracted from the following two-line orbital elements,

1 26906U 01040B   15244.91744922 0.00000060  00000-0  79537-4 0    06
2 26906  63.4635 209.7040 0296500 343.7369  16.2631 13.43961466    03
Epoch (UTC): 01 September 2015 22:01:07
Eccentricity: 0.0296500
inclination: 63.4635°
perigee height: 873 km
apogee height: 1316 km
right ascension of ascending node: 209.7040°
argument of perigee: 343.7369°
revolutions per day: 13.43961466
mean anomaly at epoch: 16.2631°
orbit number at epoch: 0

The dashed part of the orbit path shows where the satellite is in the earth's shadow,  

DLR